Theta_e
282 281 280 280 281 282 281 281 280 281 281 281 280 281 281 283 282 282 283 285 286 287 288 289 290 289 290 288 287 286 285 287
280 280 279 280 280 281 280 280 280 280 280 279 279 279 280 280 281 281 282 282 283 283 284 285 286 286 286 283 286 282 282 283
279 279 279 279 280 280 280 279 279 279 279 278 278 278 278 279 279 280 280 280 281 282 282 282 283 285 287 286 282 283 281 281
279 279 279 279 279 279 278 279 279 279 279 278 278 278 278 278 278 279 279 279 279 279 279 279 278 278 278 278 279 278 279 279
279 279 279 279 279 279 278 278 278 278 278 278 278 278 278 278 278 278 278 279 279 278 278 278 279 279 278 279 278 277 277 277
278 279 279 279 279 279 279 278 279 278 278 278 278 278 278 278 278 278 278 278 278 277 277 278 278 278 278 278 277 277 276 277
278 278 279 279 279 279 279 278 278 279 279 279 278 278 278 278 278 278 278 278 278 277 277 278 278 278 277 277 277 276 276 275
279 278 279 280 280 279 279 278 278 278 278 278 278 278 278 278 277 277 277 277 277 277 276 277 277 277 276 276 276 276 275 275
279 278 279 279 279 280 279 279 278 278 278 278 278 277 277 278 278 277 277 277 277 276 276 276 276 275 275 275 275 275 274 274
275 275 278 278 278 278 278 278 278 278 277 277 277 277 277 277 277 277 277 277 277 277 276 276 276 275 275 274 273 273 273 274
275 276 277 277 278 278 278 278 277 277 277 277 277 277 277 277 277 277 277 277 277 277 277 277 277 276 275 275 275 274 274 273
275 277 277 277 278 278 277 277 276 276 276 276 276 276 276 276 276 276 276 276 276 276 277 277 277 277 277 276 275 275 275 274
276 277 277 277 278 278 278 276 276 276 276 276 276 276 276 276 276 276 276 276 276 276 276 275 276 276 276 276 276 275 275 274
278 277 277 277 277 277 277 277 276 276 276 276 276 276 276 276 275 275 276 276 276 276 276 275 275 275 275 275 275 275 275 275
277 277 276 276 277 277 277 277 276 276 276 276 276 275 275 275 276 276 276 276 276 276 277 276 275 275 276 276 276 276 275 274
276 276 277 276 277 276 276 276 275 275 275 275 275 275 275 275 275 275 276 276 277 276 276 276 276 275 275 276 276 276 276 275
276 276 277 277 277 277 276 276 276 275 275 275 275 275 275 276 276 276 275 275 275 275 275 275 274 274 274 275 276 276 276 275
276 277 277 277 276 277 276 276 276 275 276 275 275 276 275 275 276 277 276 275 276 276 276 277 276 276 276 276 276 276 275 274
277 277 277 276 277 277 276 276 276 275 275 276 276 275 276 276 276 276 276 277 276 276 277 277 277 277 277 276 276 276 275 274
277 277 277 276 277 277 276 276 275 275 275 275 275 276 276 276 275 275 275 275 275 275 274 274 274 274 275 275 275 275 275 275
Wind_Speed
12 16 18 18 17 15 14 14 14 12 9 8 8 7 7 9 9 9 11 12 12 13 16 17 17 17 21 24 25 24 22 27
13 16 15 15 14 13 13 14 14 12 11 11 11 13 13 14 14 16 17 18 20 21 24 25 26 27 30 34 35 34 32 36
12 14 16 16 15 14 16 16 15 14 15 16 16 17 18 19 20 20 24 25 27 30 33 35 36 37 39 39 35 40 36 35
10 11 13 14 14 14 17 16 16 17 18 19 20 22 24 24 24 26 29 32 32 34 34 35 36 35 37 37 38 37 34 33
6 9 12 11 11 12 15 17 18 20 21 21 21 23 25 28 30 31 33 36 36 35 35 35 35 35 36 38 34 31 31 31
5 5 8 8 9 11 16 19 19 22 22 22 23 26 28 29 30 31 33 34 33 33 33 32 34 32 34 35 31 30 28 33
2 4 6 7 8 11 14 17 19 21 21 21 23 25 26 26 25 29 31 29 29 30 30 29 27 22 25 29 27 25 25 26
1 2 4 7 8 10 12 14 16 18 17 17 18 21 22 20 22 25 25 28 27 26 26 27 24 20 19 21 22 22 21 19
2 4 6 7 9 9 11 12 13 14 14 14 15 16 16 17 18 19 23 24 23 23 22 24 19 17 17 19 19 19 18 15
3 2 3 6 7 8 10 10 10 10 11 12 12 14 13 14 15 17 20 21 19 17 18 17 14 12 11 11 12 15 14 13
5 4 4 5 5 7 7 7 9 8 8 10 11 11 12 14 14 14 14 14 13 14 15 13 12 11 10 10 10 10 7 7
8 7 7 7 7 7 7 7 6 7 8 9 9 10 10 10 11 11 12 13 13 13 12 13 10 9 10 9 7 7 5 5
9 8 8 8 8 6 6 8 9 8 8 8 9 8 9 10 10 10 10 10 9 9 7 6 6 5 5 6 5 5 4 5
13 12 10 12 11 10 11 11 11 11 11 10 9 9 8 8 8 7 7 6 5 4 3 2 1 2 2 2 3 3 3 5
15 14 15 17 16 14 13 14 13 11 10 9 8 7 7 6 5 4 5 5 5 5 5 5 4 3 1 5 7 9 9 9
19 18 20 21 21 19 16 17 16 14 12 10 9 9 8 8 7 9 9 9 8 8 7 6 6 6 6 3 5 6 8 13
21 21 23 24 24 23 21 20 19 17 16 15 14 13 13 12 12 14 14 13 13 12 11 10 11 10 9 9 10 10 10 15
27 29 27 28 28 27 26 24 24 22 18 17 18 16 16 17 14 10 10 14 14 15 15 15 16 12 13 14 14 14 13 18
26 27 29 30 32 30 28 27 28 27 23 20 19 20 17 16 15 15 14 13 16 17 20 19 20 19 19 18 17 20 19 23
29 31 31 33 35 31 29 30 31 30 29 27 23 20 19 18 19 19 18 19 21 20 19 21 21 21 21 20 24 23 22 22
Wind_Direction
337 342 341 336 338 345 351 358 8 20 30 39 47 58 76 90 84 96 104 107 110 113 108 114 116 120 119 108 105 109 98 102
350 341 332 335 342 354 4 13 22 28 36 51 59 73 88 93 98 100 105 106 105 103 106 106 105 103 104 97 102 95 90 90
344 341 339 343 351 2 13 27 36 43 49 56 71 84 88 89 93 97 91 95 95 98 97 96 98 101 100 98 98 97 84 90
349 348 343 349 2 10 24 34 50 62 66 67 70 75 79 83 92 95 95 89 87 90 86 89 92 90 92 95 92 88 89 90
348 351 358 5 12 27 39 48 57 63 63 63 67 72 75 79 81 83 88 90 90 88 91 94 98 97 98 97 91 88 87 90
351 2 5 19 26 43 49 54 62 63 64 63 72 77 77 76 77 79 81 85 88 88 89 92 94 96 102 100 99 95 91 87
353 8 16 27 47 57 62 64 71 71 69 72 75 75 75 78 81 87 90 87 88 89 88 86 86 87 90 98 93 92 84 82
82 34 45 40 62 64 67 80 74 73 74 74 77 78 80 84 86 86 87 91 84 82 83 82 81 83 86 92 92 87 81 75
79 47 40 58 64 72 71 73 67 68 74 76 79 81 83 83 84 87 88 85 83 84 88 86 79 79 80 86 89 88 85 82
174 127 66 80 85 88 84 88 84 74 77 82 87 93 96 92 92 92 94 90 83 82 81 82 83 81 85 91 89 82 76 72
173 143 127 92 91 94 87 86 83 87 91 98 102 101 96 94 90 90 88 87 89 84 81 74 75 66 69 73 77 85 91 84
177 169 159 141 132 126 122 113 116 116 115 116 115 114 111 108 107 110 109 111 108 106 105 107 96 78 63 63 72 68 63 47
179 176 170 165 156 152 151 158 149 145 141 136 130 123 124 122 121 120 118 114 113 111 104 100 92 85 65 64 63 49 41 10
182 174 180 185 180 181 190 182 175 168 165 161 158 155 152 151 148 143 138 135 129 129 154 163 106 86 77 55 31 12 332 324
183 184 186 194 196 195 201 193 192 190 189 188 184 184 184 185 187 185 183 181 190 196 195 197 207 224 316 355 350 343 341 321
194 196 199 200 204 205 206 202 198 200 205 208 210 213 223 222 230 227 225 217 220 223 221 226 245 259 241 260 281 294 304 303
200 204 207 208 211 212 212 211 207 209 213 215 216 220 223 229 239 235 232 232 233 235 237 241 237 240 251 262 264 270 278 282
202 207 209 213 216 216 215 215 215 217 220 223 223 224 221 222 222 227 243 244 244 248 244 245 252 249 253 257 260 264 269 263
209 214 216 219 223 222 219 219 220 223 223 228 233 229 233 236 241 241 236 237 253 250 239 242 246 251 257 261 267 264 258 260
213 219 221 224 228 226 225 224 226 227 229 233 234 240 243 243 243 244 248 251 255 255 249 249 251 253 257 257 254 256 259 256